Theta_e
312 313 313 314 314 314 314 314 314 314 314 314 314 314 314 313 313 313 313 313 313 313 313 313 313 312 312 312 312 312 311 311 311 311 311 311 311 311 311 311 310 310
313 313 314 314 314 313 314 313 314 314 314 314 314 313 313 313 313 313 313 313 312 312 312 312 312 312 312 312 311 311 310 310 310 310 310 310 309 309 309 309 309 309
314 314 314 313 313 314 314 314 314 314 313 313 313 313 313 313 312 312 312 312 312 311 311 311 311 310 310 310 309 309 308 307 306 306 305 305 304 304 304 304 304 303
313 313 313 314 314 314 314 314 314 314 313 313 313 313 312 312 312 311 311 311 311 310 310 309 308 307 307 306 305 305 304 303 302 302 301 301 301 300 300 299 299 299
313 314 314 314 314 314 314 314 313 313 313 312 312 312 311 311 311 310 310 309 308 307 307 306 305 304 303 303 302 301 301 300 300 299 299 298 298 298 297 297 297 297
314 314 314 313 314 313 313 313 313 312 312 312 311 311 310 310 309 308 307 306 305 304 303 303 302 301 301 300 300 299 298 298 298 297 297 297 297 297 297 296 296 296
314 314 314 313 313 313 313 312 312 311 311 310 310 309 308 307 306 305 304 303 303 302 301 301 300 299 299 298 297 297 297 297 297 297 297 297 297 296 296 296 296 296
313 313 313 313 313 312 312 311 311 310 310 309 308 306 305 304 303 303 302 301 301 300 299 299 298 298 297 297 297 297 297 297 297 297 297 297 297 297 296 296 296 296
313 313 313 312 312 311 311 310 310 309 307 306 305 304 303 302 302 301 300 299 299 298 298 298 297 297 297 297 297 297 297 297 297 297 296 296 296 297 296 296 296 296
313 313 312 312 311 310 310 309 307 306 304 303 303 302 302 301 300 299 298 298 298 298 297 297 297 297 297 297 297 297 297 297 297 296 296 296 296 296 296 296 296 296
312 312 311 310 310 309 308 306 305 304 303 302 302 300 300 299 298 297 297 297 297 297 297 297 297 297 296 296 296 296 296 296 296 296 296 296 295 295 295 295 294 294
311 311 310 309 308 307 305 304 303 303 302 301 300 298 298 298 297 297 297 297 297 297 296 296 296 296 296 296 296 296 296 296 296 295 295 295 294 294 294 293 293 293
310 309 308 307 306 305 304 303 302 301 300 299 298 298 298 297 297 297 297 297 296 296 296 296 296 296 296 296 296 296 295 295 295 294 294 294 293 293 293 293 293 293
309 307 306 305 304 303 303 302 301 300 299 298 298 298 297 297 297 297 296 296 296 296 296 296 295 295 295 295 295 295 295 294 294 293 293 293 293 293 294 294 293 293
307 305 304 303 303 303 302 301 300 299 298 298 297 297 297 297 297 296 296 296 296 295 295 295 295 295 295 295 294 294 294 293 293 293 293 293 294 294 294 293 293 293
305 304 303 303 303 302 301 300 299 298 298 297 297 297 297 297 296 296 296 295 295 295 295 295 294 294 294 293 293 293 293 293 293 293 293 293 294 294 294 294 293 293
304 303 303 302 302 301 300 299 298 298 297 297 297 296 296 296 295 295 295 295 295 294 294 294 293 293 293 293 293 293 292 293 293 293 293 293 293 293 293 293 293 293
303 303 302 301 300 299 298 298 297 297 297 296 296 296 296 295 295 295 295 294 294 293 293 293 292 292 292 292 292 292 292 293 293 293 293 293 293 293 293 293 293 293
302 302 301 300 299 298 297 297 297 297 296 296 296 296 295 295 295 294 294 293 293 293 292 292 292 292 292 292 292 292 292 293 293 293 293 293 293 293 292 292 292 292
301 300 299 298 297 297 297 297 297 296 296 296 296 295 295 294 294 293 293 293 292 292 291 291 291 292 292 292 292 292 292 292 293 293 293 293 293 292 292 292 291 290
300 299 298 297 297 297 297 296 296 296 296 296 295 295 294 294 293 293 292 292 292 291 291 291 291 291 291 292 292 292 292 292 292 293 293 293 293 292 291 290 290 290
298 297 297 297 296 296 296 296 296 296 296 295 295 294 294 293 293 292 292 291 291 291 291 291 291 291 291 291 292 292 292 292 292 292 292 292 292 291 290 290 290 289
297 297 296 296 296 296 296 296 296 295 295 294 294 293 293 292 292 291 291 291 291 291 291 291 291 291 291 291 291 291 291 291 291 292 291 291 291 291 290 290 289 289
297 296 296 296 295 295 295 295 295 295 294 294 293 293 292 292 291 291 291 291 291 291 291 291 291 291 290 290 290 290 290 290 290 290 290 290 290 290 290 290 289 289
297 296 296 295 295 295 295 295 294 294 293 293 293 292 292 291 291 291 290 290 290 290 290 290 290 290 290 290 290 289 289 289 289 289 289 290 290 290 290 290 289 289
296 296 295 295 295 295 294 294 293 293 293 292 292 291 291 291 290 290 290 290 290 290 290 290 290 289 289 289 289 289 289 288 288 288 289 289 289 289 289 289 289 289
Wind_Speed
21 20 17 15 13 12 11 10 9 8 6 5 3 2 2 2 2 3 3 4 4 5 5 6 6 7 7 7 8 8 9 10 11 11 12 12 13 14 14 15 16 17
17 15 13 12 12 12 11 9 7 6 4 2 1 1 1 1 2 3 4 5 5 6 7 7 8 8 9 9 9 9 9 10 10 11 11 12 12 12 13 14 14 15
14 14 14 14 13 12 10 8 6 5 4 3 2 2 1 0 1 2 3 4 4 5 6 7 8 9 9 10 10 10 11 11 11 11 12 13 13 14 14 15 15 16
17 17 16 15 13 11 9 7 6 5 5 4 4 3 2 2 2 2 2 3 4 5 6 6 7 8 8 9 9 10 11 11 12 12 13 14 15 16 17 17 18 18
18 17 15 13 11 10 8 7 7 6 6 5 5 4 3 3 2 2 3 3 4 5 5 6 7 7 8 9 9 10 11 12 13 14 14 15 16 17 18 19 19 20
18 15 14 12 11 9 9 8 8 8 7 7 5 5 4 3 2 2 3 3 4 4 5 6 7 7 8 9 10 11 12 13 14 15 16 16 17 19 20 21 22 22
16 14 13 12 11 11 10 10 10 9 8 7 5 5 4 3 3 2 2 3 3 4 5 6 6 8 8 9 10 12 13 14 15 16 17 19 19 21 22 24 26 26
15 14 13 13 12 13 12 11 11 9 8 7 6 5 4 4 3 2 1 2 3 4 5 6 7 8 9 10 11 13 15 16 18 19 20 22 23 24 26 27 29 30
15 15 15 14 14 14 13 12 11 9 8 7 6 5 4 3 2 1 2 2 3 4 6 7 8 9 11 12 14 15 17 19 20 22 24 26 27 28 30 31 33 34
16 16 16 16 15 14 13 12 11 9 9 8 6 5 4 3 2 2 2 3 4 5 6 8 9 11 13 14 16 18 19 20 22 24 25 27 29 30 32 33 34 36
18 18 17 16 15 14 13 12 11 10 9 7 6 4 3 2 2 2 2 3 5 6 8 9 11 12 14 15 17 19 21 22 24 25 26 28 29 31 32 33 34 36
19 18 17 16 15 14 13 12 11 10 8 6 5 4 3 2 1 1 3 4 6 7 9 10 12 13 15 16 19 20 22 24 25 27 28 29 30 31 32 34 35 37
20 19 18 17 16 15 14 12 10 8 7 5 4 3 2 0 1 3 4 6 7 8 10 11 13 15 17 18 20 23 24 26 28 29 30 30 31 33 34 36 37 38
20 20 19 18 16 15 13 11 9 8 6 5 4 2 1 1 2 4 5 6 8 9 11 12 14 16 18 20 22 24 26 27 29 29 31 32 33 35 36 37 38 39
21 21 19 17 15 14 12 10 9 7 6 5 3 1 1 2 3 4 6 7 9 10 11 13 15 17 20 22 24 26 27 28 29 30 32 35 36 38 39 40 41 43
22 21 19 17 15 13 12 10 9 7 6 4 2 1 1 3 4 5 7 8 9 11 13 15 17 19 20 22 23 25 27 29 30 32 34 36 39 41 43 44 45 47
22 20 18 17 15 13 12 10 8 7 5 3 1 1 2 4 5 7 8 10 11 13 15 16 18 20 21 22 23 25 28 30 32 34 36 38 40 43 45 47 49 50
22 20 18 16 14 13 11 10 8 6 4 2 2 2 3 5 6 8 9 11 13 15 16 17 19 20 21 22 24 26 29 31 33 35 37 39 41 43 46 49 51 53
22 20 18 16 14 12 11 9 7 5 4 3 3 3 5 6 8 9 11 13 15 16 17 18 20 21 23 24 26 28 30 32 34 36 38 40 42 45 47 49 51 53
21 19 17 15 14 12 10 8 6 5 4 3 4 5 6 8 9 11 13 15 17 17 18 19 21 22 24 26 28 30 32 33 35 38 40 42 44 45 47 49 50 51
20 18 16 14 13 11 9 8 6 5 4 4 5 6 8 9 11 13 14 16 17 18 19 20 21 23 25 27 29 31 33 35 37 40 42 44 45 46 47 48 49 50
19 17 15 13 12 10 8 7 5 4 4 5 6 8 9 11 12 14 15 16 17 19 20 21 22 24 26 28 30 32 34 37 39 41 43 45 46 47 48 48 49 49
19 16 14 13 11 9 8 6 5 4 4 6 7 9 10 12 13 14 16 17 18 20 21 23 24 25 27 29 31 33 36 38 41 43 44 46 47 48 49 50 50 50
18 16 14 12 11 9 7 5 4 5 5 7 8 10 12 13 14 15 16 18 19 20 22 24 25 26 27 30 32 34 37 39 41 43 45 47 48 50 50 51 51 51
18 16 14 12 10 8 6 5 4 5 6 8 10 11 13 13 14 15 16 17 19 21 22 24 26 27 28 31 33 35 37 39 41 43 45 47 50 51 52 53 52 52
17 15 13 11 9 7 5 4 5 6 8 10 11 12 13 14 15 16 17 18 19 21 23 25 26 28 29 31 33 35 37 39 40 42 45 48 50 51 53 53 54 54
Wind_Direction
216 217 216 213 207 198 192 188 186 185 190 202 217 243 273 293 315 341 353 358 360 358 357 357 357 356 354 354 352 347 341 338 337 334 333 330 326 324 322 320 321 319
206 203 195 186 178 175 174 174 176 180 187 204 223 248 286 326 354 3 7 10 10 8 9 7 4 4 2 2 1 359 356 354 353 351 348 346 343 342 340 337 338 333
182 176 171 168 168 170 170 170 174 177 182 195 201 200 191 92 43 37 33 29 24 19 16 12 7 5 2 0 359 358 357 357 357 356 353 350 348 346 344 341 342 340
166 165 166 168 168 169 170 171 176 181 186 190 184 170 154 133 106 77 57 38 29 22 17 14 10 8 6 2 359 355 352 351 351 351 350 348 344 342 341 339 340 341
165 165 166 168 168 169 172 175 181 183 180 177 169 161 152 135 114 75 53 39 30 22 16 13 8 5 1 355 352 349 346 345 344 343 342 342 340 337 336 336 337 339
166 167 166 167 170 172 176 178 178 176 171 170 165 156 145 127 104 76 62 45 32 22 11 5 360 354 350 347 345 344 343 342 341 341 340 340 340 338 337 337 337 338
166 167 167 171 173 174 177 176 172 170 167 164 159 150 137 123 110 89 70 39 21 9 360 354 350 348 348 348 346 344 343 341 339 339 338 338 338 337 336 335 334 334
169 170 170 174 175 174 175 173 168 166 161 156 153 147 137 130 121 97 66 26 9 358 353 350 347 347 346 344 343 340 339 338 337 337 336 336 336 335 334 333 331 331
172 173 173 174 175 174 172 168 166 162 156 154 153 148 142 141 133 88 48 17 7 356 350 348 345 344 343 340 339 338 338 338 337 336 336 335 334 333 333 331 330 329
175 174 175 175 173 172 169 166 164 160 157 158 157 155 150 140 115 70 43 13 357 348 345 346 344 343 342 340 339 338 337 335 334 333 333 332 331 330 329 328 327 326
177 175 174 174 172 171 170 167 165 163 163 162 158 152 143 120 96 55 21 356 349 349 348 346 344 342 340 338 337 335 333 332 330 330 329 328 328 328 329 329 329 329
177 174 173 174 173 172 171 168 166 165 162 160 154 146 139 127 98 8 355 354 354 352 347 342 339 338 337 335 333 331 330 329 328 328 329 329 331 332 333 333 332 331
175 174 174 174 174 173 171 168 166 165 162 162 161 158 157 145 2 353 355 355 351 345 340 337 337 336 334 333 332 330 329 329 329 330 331 332 334 335 335 334 332 330
175 175 175 175 175 172 171 170 169 170 172 173 172 173 186 339 351 351 350 347 342 339 337 336 336 334 333 332 331 331 330 330 331 332 333 333 334 334 334 333 332 331
177 176 176 176 176 175 175 176 178 180 181 181 182 192 268 336 341 341 340 336 335 337 337 337 336 335 335 334 333 333 332 331 332 333 333 333 334 334 335 334 334 334
178 178 178 179 180 182 182 182 183 184 184 185 191 240 318 330 331 330 330 329 332 335 337 338 337 336 337 337 335 334 332 332 332 333 333 334 335 335 336 336 336 335
180 181 182 183 185 186 185 184 184 184 185 191 213 295 314 319 324 325 327 330 334 338 340 340 339 338 338 337 336 334 332 332 332 333 334 335 336 336 336 336 336 336
184 185 185 186 187 187 186 184 183 184 189 207 247 289 304 313 322 325 329 334 337 342 344 343 342 341 339 337 336 334 332 331 331 333 334 336 337 337 336 336 335 335
186 187 187 188 189 188 186 184 183 192 204 229 260 286 305 315 324 330 335 338 340 343 346 346 344 341 339 337 335 333 332 331 332 333 335 336 337 337 336 336 335 334
186 187 188 189 189 188 188 188 190 202 220 249 280 298 310 319 328 336 340 340 341 343 346 345 343 340 337 335 334 332 331 331 332 334 335 336 337 336 336 335 334 333
186 186 188 189 190 191 192 195 200 214 241 272 295 306 316 325 332 336 339 340 341 343 344 343 341 338 336 334 333 332 331 332 334 335 335 336 336 335 334 333 333 332
186 187 189 191 193 195 198 203 213 232 264 287 304 314 322 330 334 336 339 341 342 342 341 341 340 337 335 334 333 332 333 334 335 335 334 334 334 334 333 332 332 331
187 187 190 194 196 201 206 215 231 255 280 297 310 319 326 331 335 339 340 340 341 340 338 338 338 336 335 335 335 335 335 335 335 334 334 333 333 332 331 331 331 332
188 188 192 197 200 206 215 228 252 275 294 307 316 324 329 332 335 339 340 338 338 337 337 337 337 337 338 337 337 337 336 336 335 334 333 332 331 331 330 330 331 332
190 190 193 199 205 214 225 243 270 291 306 315 320 325 328 329 332 335 336 336 335 335 335 336 338 340 340 339 338 338 337 336 334 333 332 331 330 330 330 330 330 331
191 191 195 202 210 221 235 258 286 303 313 317 319 322 324 326 330 331 332 333 333 334 336 338 339 341 341 340 338 338 336 335 334 332 332 331 330 329 329 329 329 330